STARLINK-1336, 45557

Orbit data source: Space-Track

STARLINK-1336, 45557 is a payload satellite owned by SpaceX/Seattle (US) in LEO that was launched on Wed, 22 Apr 2020 UTC via an FALCON 9 launch vehicle from the Air Force Eastern Test Range (AFETR). Payload-class satellites include a variety of spacecraft equipped with specific instruments for various scientific and technological missions. These include communications satellites like Starlink; space stations such as the ISS; scientific satellites like the Hubble; Earth observation satellites from companies like Planet Labs, Umbra, and HawkEye 360; GPS; miniature CubeSats for education and research; and military/defense satellites.

Loading next visibility...
Identifier
45557, 2020-025AC
Orbit
LEO
Last TLE update
10 hours ago
Origin
Manufacturer
SpaceX/Seattle
Mission
Partially operational Commercial Communications
Bus & Motor
STARLINK, Unknown motor
Mass
260 kg wet, ~248 kg dry
Launch date (UTC)
2020-04-22 (5 years ago)
Launch vehicle
FALCON 9
Launch site
Air Force Eastern Test Range (AFETR)
Object type
Payload
Rocket body
Debris
Shape & HBR
Box + 1 Pan, 4.4 m
Radar Cross Section
13.562 m², Large (>1 m²)

Expand to show TLE details & history

TLE from 10 hours ago
0 STARLINK-1336
1 45557U 20025AC  25199.54095583  .00109516  00000-0  12641-2 0  9998
2 45557  53.0493  43.8899 0005170 206.7697 153.3050 15.61090544290275
Epoch: 2025-07-18T12:58Z
TLE epoch observation values (Epoch: 2025-07-18T12:58:58.583Z)
Latitude
Longitude
-87.44513°
Altitude
388.529 km
Speed
7.676 km/s
True Right ascension
02h 55m 33s
True Declination
0° 00' 00"
Sunlit
Object was in daylight at epoch
Visualization orbit readout
Latitude
-3.77599°
Longitude
93.34949°
Altitude
382.515 km
Speed
7.683 km/s
Apparent Right ascension
18h 04m 18s
Apparent Declination
-41° 55' 49"
Sunlit
Object is in daylight
Visualization observer readout
Local Sidereal Time
11:46:53
Azimuth
122.703° SE
Elevation
-28.17°
Doppler factor
1
Orbital elements
Apogee altitude
388.28 km
Perigee altitude
381.287 km
Semi-major axis
6,762.921 km
Eccentricity
0.00052
Inclination
53.0493°
RAAN
43.8899°
Arg. of periapsis
206.7697°
True anomaly
153.3316°
Mean anomaly
153.305°
Eccentric anomaly
153.3183°
Mean motion
3.90249 °/min
Orbital period
92.25 mins
BSTAR
0.0012641
Loading maneuver chart data...
Loading SW <> Apogee altitude chart data...
Loading historical data...
Loading historical data...
Loading historical data...
Loading historical data...
Loading historical data...
Loading historical data...
Loading historical data...
|